COSMOS 1721

Satellite information

Favourite Embed

Satellite Type and Status

PAYLOADIN ORBIT

Key statistics

Satellite COSMOS 1721 at a glance.

Uptime

14541

Days in orbit

Revolutions

≈ 12.5

Per day

Orbit

LEO

Low Earth Orbit

Inclination

74.0

Latest

Satellite identification and parameters

Extended collection of information and parameters for COSMOS 1721.

Object identification

Identified? True

Debris? False

Object name: COSMOS 1721

International designator: 1986-002F

Object number (NORAD): 16454

Object ID (CCSDS): 16454

Country: COMMONWEALTH OF INDEPENDENT STATES (CIS)

Current information (Y/N): Y

RCS size: MEDIUM

Orbital parameters

Period: 114.981 minutes

Inclination: 73.9863 deg

SMA: 7832.686 km

Apoapsis: 1483.036 km

Periapsis: 1426.067 km

RAAN: 145.0793 deg

Eccentricy: 0.0036366

Argument of periapsis: 193.0238 deg

Mean anomaly: 178.7312 deg

Mean motion: 12.52381531 rev/day

Mean motion (dot): 0.00000007 rev/day2

B* drag term: 0.00014972 1/REarth

Two-line elements (TLE)

Creation date: Oct. 31, 2025, 11:06 p.m.

Reference frame: TEME

Reference center: EARTH

Epoch: Oct. 31, 2025, 7:11 p.m. UTC

TLE line 0: 0 COSMOS 1721

TLE line 1: 1 16454U 86002F 25304.79966867 .00000007 00000-0 14972-3 0 9991

TLE line 2: 2 16454 73.9863 145.0793 0036366 193.0238 178.7312 12.52381531820119

Live tracking on map

Real-time ground track for satellite COSMOS 1721.

In-orbit conjunctions

A list of the most updated potential collisions computed for object COSMOS 1721.

Target Orbit TCA Probability of collision Miss distance Type
THORAD DELTA 1 DEB SSO 2025-01-07 18:28:21 0.0005787253 247.0 (m) DEBRIS

Associated space launch

Military communications satellites

COSMOS 1721 was lifted into orbit during the mission ‘Kosmos-3M | Strela-1M 297-304’, on board a Kosmos-3M space rocket.

The launch took place on Jan. 9, 1986, 2:48 a.m. from 132/2.

For more information about the launch, click the button.

Launch to space Kosmos-3M | Strela-1M 297-304
Kosmos-3M | Strela-1M 297-304

Agency: N/A

Status: Launch Successful

Launch date: Jan. 9, 1986, 2:48 a.m. UTC

Rocket: Kosmos-3M

Launch pad: 132/2

Location: Plesetsk Cosmodrome, Russian Federation

...

Latest news about this satellite

There are no fresh news available about this satellite. Check back as we update our databases every day.


Newsletter sign-up

Weekly statistics, charts and insights to help you stay on top of the space industry.